This is the latest recevied weather packets stored in our database for station/object IZ3VCM. If no packets are shown the sender has not sent any weather packets the latest 10 day(s).
| Time | Temp. | Humidity | Pressure | Rain* | Wind** | Luminosity | Snow |
|---|---|---|---|---|---|---|---|
| 1778105703 | 13.33° C | 91% | 1010.4 hPa | 0 mm | - | - | - |
| 1778104805 | 13.33° C | 91% | 1010.3 hPa | 0 mm | - | - | - |
| 1778103903 | 13.33° C | 91% | 1010.2 hPa | 0 mm | - | - | - |
| 1778103005 | 13.33° C | 91% | 1010.2 hPa | 0 mm | - | - | - |
| 1778102103 | 13.89° C | 90% | 1010.2 hPa | 0 mm | - | - | - |
| 1778101205 | 14.44° C | 90% | 1010.2 hPa | 0 mm | - | - | - |
| 1778100304 | 14.44° C | 90% | 1010.3 hPa | 0 mm | - | - | - |
| 1778099407 | 14.44° C | 90% | 1010 hPa | 0 mm | - | - | - |
| 1778098503 | 14.44° C | 89% | 1010 hPa | 0 mm | - | - | - |
| 1778097605 | 14.44° C | 89% | 1009.7 hPa | 0 mm | - | - | - |
| 1778096703 | 15° C | 89% | 1009.4 hPa | 0 mm | - | - | - |
| 1778095805 | 15° C | 88% | 1009.3 hPa | 0 mm | - | - | - |
| 1778094903 | 15.56° C | 87% | 1009 hPa | 0 mm | - | - | - |
| 1778094007 | 16.11° C | 87% | 1008.9 hPa | 0 mm | - | - | - |
| 1778093103 | 16.67° C | 86% | 1008.9 hPa | 0 mm | - | - | - |
| 1778092206 | 16.67° C | 85% | 1008.7 hPa | 0 mm | - | - | - |
| 1778091303 | 16.67° C | 85% | 1008.7 hPa | 0 mm | - | - | - |
| 1778088606 | 17.22° C | 82% | 1008.3 hPa | 0 mm | - | - | - |
| 1778087703 | 18.33° C | 83% | 1008.4 hPa | 0 mm | - | - | - |
| 1778086806 | 18.33° C | 84% | 1008.2 hPa | 0 mm | - | - | - |
| 1778085904 | 18.33° C | 83% | 1008.2 hPa | 0 mm | - | - | - |
| 1778085006 | 18.89° C | 81% | 1008 hPa | 0 mm | - | - | - |
| 1778084103 | 20° C | 77% | 1008.2 hPa | 0 mm | - | - | - |
| 1778083205 | 20° C | 77% | 1008.3 hPa | 0 mm | - | - | - |
| 1778082304 | 20.56° C | 79% | 1008.1 hPa | 0 mm | - | - | - |
* Rain latest hour (hover to see other rain measurements)
** Current wind speed in m/s (hover to see current wind gust speed)